M I D A S
Marine Information and Data Acquisition System
Tripno 736 of the Zeeleeuw from 2004-06-14 06:28:19 to 2004-06-14 15:44:48
Back to CruiseResearch ActivitiesStationsMapUnderway DataData graphs

EquipmentUnitsComments
TimeDGPSUTC
LatitudeDGPSDM.mWGS84
LongitudeDGPSDM.mWGS84
SpeedMeteo Stationm/sRelative wind speed
DirectionMeteo StationdegRelative wind direction
TemperatureMeteo Stationdeg CelciusAir temperature
PressureMeteo StationPaAtmospheric pressure
HumidityMeteo Station%Relative humidity
Missing or incorrect values are displayed as -999
Metereological data collected by the RV Zeeleeuw from 2004-06-14 06:28:19 to 2004-06-14 15:44:48
                                                                                    Next 1000 lines
Time Latitude Longitude Speed Direction Temperature Pressure Humidity
2004-06-14 06:28:29 51°13.595 2°56.098 4.2 96 14.8 103060 68
2004-06-14 06:28:34 51°13.595 2°56.098 4.3 93 14.8 103050 68
2004-06-14 06:28:39 51°13.595 2°56.098 3.8 57 14.8 103050 68
2004-06-14 06:28:43 51°13.595 2°56.098 3.7 108 14.7 103060 68
2004-06-14 06:28:49 51°13.595 2°56.098 3.1 71 14.7 103060 68
2004-06-14 06:28:54 51°13.595 2°56.098 2.7 100 14.8 103060 68
2004-06-14 06:28:59 51°13.594 2°56.098 2.8 97 14.7 103060 68
2004-06-14 06:29:05 51°13.595 2°56.098 2.7 113 14.7 103060 68
2004-06-14 06:29:09 51°13.595 2°56.097 2.2 93 14.7 103060 68
2004-06-14 06:29:13 51°13.595 2°56.096 3.2 120 14.7 103060 68
2004-06-14 06:29:19 51°13.596 2°56.093 2.5 108 14.7 103060 68
2004-06-14 06:29:23 51°13.597 2°56.091 3.7 107 14.8 103060 67
2004-06-14 06:29:29 51°13.598 2°56.086 3.6 121 14.8 103060 67
2004-06-14 06:29:34 51°13.6 2°56.082 3 113 14.8 103060 68
2004-06-14 06:29:39 51°13.601 2°56.077 3 116 14.8 103060 68
2004-06-14 06:29:45 51°13.603 2°56.07 2.7 123 14.7 103060 68
2004-06-14 06:29:50 51°13.605 2°56.064 3 145 14.7 103060 68
2004-06-14 06:29:55 51°13.607 2°56.058 3.7 154 14.8 103060 68
2004-06-14 06:29:59 51°13.608 2°56.053 4.1 142 14.8 103060 68
2004-06-14 06:30:05 51°13.611 2°56.045 3.8 126 14.8 103060 68
2004-06-14 06:30:10 51°13.613 2°56.038 2.6 142 14.8 103060 68
2004-06-14 06:30:15 51°13.615 2°56.031 3 45 14.8 103060 68
2004-06-14 06:30:20 51°13.617 2°56.024 2.1 133 14.8 103060 68
2004-06-14 06:30:25 51°13.619 2°56.016 3.6 125 14.8 103060 68
2004-06-14 06:30:30 51°13.621 2°56.009 2.9 120 14.8 103060 68
2004-06-14 06:30:35 51°13.623 2°56.001 3.7 117 14.8 103060 68
2004-06-14 06:30:39 51°13.625 2°55.995 3.2 127 14.8 103060 68
2004-06-14 06:30:45 51°13.627 2°55.985 2.2 117 14.8 103060 68
2004-06-14 06:30:50 51°13.629 2°55.977 2.8 138 14.8 103060 68
2004-06-14 06:30:55 51°13.632 2°55.968 3.4 151 14.8 103060 69
2004-06-14 06:30:59 51°13.634 2°55.962 3.5 138 14.8 103060 69
2004-06-14 06:31:05 51°13.637 2°55.951 3.4 149 14.8 103060 68
2004-06-14 06:31:10 51°13.639 2°55.943 2.5 172 14.8 103060 68
2004-06-14 06:31:15 51°13.642 2°55.934 2.3 167 14.9 103060 69
2004-06-14 06:31:19 51°13.644 2°55.927 1.9 120 14.9 103060 69
2004-06-14 06:31:25 51°13.647 2°55.916 2 138 14.9 103060 69
2004-06-14 06:31:30 51°13.65 2°55.907 2.8 173 14.9 103060 69
2004-06-14 06:31:35 51°13.653 2°55.898 2.4 160 14.9 103060 69
2004-06-14 06:31:39 51°13.655 2°55.89 2 188 14.9 103060 69
2004-06-14 06:31:45 51°13.658 2°55.878 1.9 168 14.9 103060 69
2004-06-14 06:31:50 51°13.66 2°55.869 2.1 169 14.9 103060 69
2004-06-14 06:31:55 51°13.663 2°55.859 3.1 155 14.9 103060 69
2004-06-14 06:31:59 51°13.665 2°55.851 3.3 163 14.9 103060 69
2004-06-14 06:32:05 51°13.667 2°55.838 3.9 168 14.9 103060 70
2004-06-14 06:32:10 51°13.669 2°55.828 3.3 154 14.9 103060 70
2004-06-14 06:32:15 51°13.671 2°55.818 3.5 149 15 103060 70
2004-06-14 06:32:19 51°13.672 2°55.81 3.2 126 15 103060 70
2004-06-14 06:32:25 51°13.673 2°55.8 3.2 153 15 103060 70
2004-06-14 06:32:30 51°13.674 2°55.793 3.6 138 15 103060 70
2004-06-14 06:32:34 51°13.675 2°55.788 4.6 144 15 103060 70
2004-06-14 06:32:39 51°13.676 2°55.784 3.9 135 15 103060 70
2004-06-14 06:32:44 51°13.676 2°55.782 4.3 135 15 103060 70
2004-06-14 06:32:49 51°13.677 2°55.781 3.5 135 15 103060 70
2004-06-14 06:32:54 51°13.677 2°55.782 3.6 122 15 103060 70
2004-06-14 06:32:59 51°13.678 2°55.783 3.3 116 15 103060 70
2004-06-14 06:33:04 51°13.679 2°55.786 3 129 15 103060 69
2004-06-14 06:33:09 51°13.681 2°55.788 3.7 144 15 103060 69
2004-06-14 06:33:14 51°13.682 2°55.79 2.8 158 15 103060 68
2004-06-14 06:33:18 51°13.682 2°55.79 3.3 158 15 103060 68
2004-06-14 06:33:24 51°13.682 2°55.79 3.1 159 15 103060 68
2004-06-14 06:33:29 51°13.682 2°55.788 3.4 154 15 103060 68
2004-06-14 06:33:34 51°13.681 2°55.787 2.6 177 15 103060 68
2004-06-14 06:33:37 51°13.68 2°55.786 3.1 175 15 103060 68
2004-06-14 06:33:45 51°13.677 2°55.782 3.6 177 15.1 103060 67
2004-06-14 06:33:50 51°13.675 2°55.779 3.2 180 15.1 103060 67
2004-06-14 06:33:55 51°13.672 2°55.776 3.6 181 15 103060 67
2004-06-14 06:33:59 51°13.671 2°55.773 2.8 194 15 103060 67
2004-06-14 06:34:05 51°13.668 2°55.771 1.9 176 15.1 103060 67
2004-06-14 06:34:10 51°13.668 2°55.77 2 178 15.1 103060 67
2004-06-14 06:34:14 51°13.669 2°55.77 1.4 201 15.1 103060 67
2004-06-14 06:34:19 51°13.671 2°55.77 0.6 220 15.1 103060 67
2004-06-14 06:34:25 51°13.674 2°55.77 0.4 221 15.1 103060 68
2004-06-14 06:34:30 51°13.678 2°55.77 0.2 223 15.1 103060 68
2004-06-14 06:34:33 51°13.681 2°55.769 0.7 284 15.2 103060 67
2004-06-14 06:34:39 51°13.686 2°55.767 1.5 292 15.2 103060 67
2004-06-14 06:34:43 51°13.69 2°55.764 2.2 289 15.2 103060 67
2004-06-14 06:34:49 51°13.696 2°55.759 2.4 284 15.2 103060 67
2004-06-14 06:34:54 51°13.701 2°55.754 1.9 291 15.2 103060 67
2004-06-14 06:34:57 51°13.704 2°55.751 1.2 279 15.2 103060 67
2004-06-14 06:35:07 51°13.716 2°55.738 1.5 298 15.2 103060 67
2004-06-14 06:35:11 51°13.722 2°55.732 1.2 314 15.3 103060 67
2004-06-14 06:35:17 51°13.73 2°55.723 1.6 324 15.3 103060 67
2004-06-14 06:35:22 51°13.737 2°55.714 2.8 329 15.3 103060 67
2004-06-14 06:35:27 51°13.745 2°55.705 2.8 340 15.3 103060 67
2004-06-14 06:35:32 51°13.753 2°55.696 3.7 340 15.3 103060 67
2004-06-14 06:35:37 51°13.762 2°55.686 3.3 356 15.3 103060 67
2004-06-14 06:35:42 51°13.77 2°55.676 3.6 335 15.3 103060 67
2004-06-14 06:35:47 51°13.78 2°55.666 4.2 329 15.3 103060 67
2004-06-14 06:35:52 51°13.789 2°55.657 4.3 335 15.4 103060 67
2004-06-14 06:35:57 51°13.8 2°55.649 4.1 332 15.4 103060 67
2004-06-14 06:36:02 51°13.81 2°55.641 3 322 15.4 103060 67
2004-06-14 06:36:07 51°13.821 2°55.634 2.6 314 15.4 103060 67
2004-06-14 06:36:12 51°13.832 2°55.627 2.5 321 15.4 103060 67
2004-06-14 06:36:17 51°13.843 2°55.62 3 354 15.4 103060 67
2004-06-14 06:36:22 51°13.854 2°55.613 2.3 336 15.4 103060 67
2004-06-14 06:36:27 51°13.866 2°55.606 2.7 3 15.4 103060 67
2004-06-14 06:36:31 51°13.875 2°55.601 3.7 10 15.4 103060 66
2004-06-14 06:36:37 51°13.889 2°55.592 2.3 359 15.4 103060 66
2004-06-14 06:36:41 51°13.899 2°55.587 2.1 357 15.4 103060 66
2004-06-14 06:36:47 51°13.913 2°55.578 2.9 10 15.4 103060 66
2004-06-14 06:36:52 51°13.925 2°55.571 3.7 3 15.4 103060 65
2004-06-14 06:36:57 51°13.937 2°55.563 2.8 20 15.4 103060 65
2004-06-14 06:37:01 51°13.947 2°55.557 3.1 17 15.5 103060 66
2004-06-14 06:37:07 51°13.962 2°55.548 3.4 10 15.5 103060 66
2004-06-14 06:37:11 51°13.971 2°55.542 4 350 15.5 103060 65
2004-06-14 06:37:17 51°13.986 2°55.533 4.2 358 15.5 103060 65
2004-06-14 06:37:22 51°13.999 2°55.525 3.5 343 15.5 103060 65
2004-06-14 06:37:27 51°14.011 2°55.516 3.5 346 15.5 103060 65
2004-06-14 06:37:32 51°14.023 2°55.508 3.3 344 15.5 103060 65
2004-06-14 06:37:37 51°14.036 2°55.5 3.7 337 15.5 103060 65
2004-06-14 06:37:42 51°14.048 2°55.491 4.4 344 15.5 103060 66
2004-06-14 06:37:47 51°14.06 2°55.482 3.4 360 15.5 103060 66
2004-06-14 06:37:52 51°14.072 2°55.472 2.8 358 15.5 103060 66
2004-06-14 06:37:57 51°14.085 2°55.461 3 40 15.5 103060 66
2004-06-14 06:38:02 51°14.097 2°55.452 5.4 314 15.5 103060 66
2004-06-14 06:38:07 51°14.109 2°55.441 4.3 316 15.5 103060 66
2004-06-14 06:38:11 51°14.12 2°55.432 4.4 328 15.6 103060 66
2004-06-14 06:38:17 51°14.135 2°55.419 4.7 345 15.6 103060 66
2004-06-14 06:38:22 51°14.147 2°55.407 4 332 15.6 103060 66
2004-06-14 06:38:26 51°14.158 2°55.396 4.2 331 15.6 103060 66
2004-06-14 06:38:32 51°14.173 2°55.381 4.6 350 15.6 103050 65
2004-06-14 06:38:38 51°14.189 2°55.365 4.6 338 15.6 103050 65
2004-06-14 06:38:42 51°14.199 2°55.353 5.6 344 15.6 103060 64
2004-06-14 06:38:47 51°14.212 2°55.337 7 346 15.6 103060 64
2004-06-14 06:38:50 51°14.219 2°55.327 7.2 349 15.6 103050 64
2004-06-14 06:38:58 51°14.238 2°55.299 7.4 336 15.6 103050 64
2004-06-14 06:39:02 51°14.247 2°55.284 6.2 343 15.6 103050 64
2004-06-14 06:39:07 51°14.259 2°55.265 6.1 341 15.6 103050 64
2004-06-14 06:39:12 51°14.27 2°55.245 5.8 350 15.6 103050 63
2004-06-14 06:39:17 51°14.281 2°55.224 6.2 352 15.6 103050 63
2004-06-14 06:39:22 51°14.291 2°55.204 6.9 344 15.7 103050 63
2004-06-14 06:39:27 51°14.302 2°55.183 7.2 335 15.7 103050 63
2004-06-14 06:39:32 51°14.313 2°55.162 7.1 330 15.7 103050 63
2004-06-14 06:39:37 51°14.325 2°55.142 7.2 337 15.7 103050 63
2004-06-14 06:39:42 51°14.336 2°55.121 7.7 336 15.7 103050 63
2004-06-14 06:39:47 51°14.347 2°55.101 6.1 346 15.7 103050 63
2004-06-14 06:39:51 51°14.356 2°55.084 6.7 340 15.7 103050 62
2004-06-14 06:39:57 51°14.37 2°55.059 6.5 332 15.7 103050 62
2004-06-14 06:40:01 51°14.38 2°55.041 6.8 333 15.7 103040 62
2004-06-14 06:40:07 51°14.394 2°55.016 7.8 330 15.7 103040 62
2004-06-14 06:40:11 51°14.404 2°54.998 8.4 328 15.8 103040 62
2004-06-14 06:40:17 51°14.418 2°54.97 7.5 328 15.8 103040 62
2004-06-14 06:40:22 51°14.429 2°54.946 8.7 325 15.8 103050 62
2004-06-14 06:40:27 51°14.44 2°54.922 8.6 327 15.8 103050 62
2004-06-14 06:40:32 51°14.451 2°54.898 7.9 330 15.8 103050 62
2004-06-14 06:40:37 51°14.463 2°54.874 8.1 320 15.8 103050 62
2004-06-14 06:40:42 51°14.474 2°54.849 7.8 327 15.8 103040 62
2004-06-14 06:40:47 51°14.485 2°54.825 8.3 322 15.8 103040 62
2004-06-14 06:40:52 51°14.496 2°54.8 8.1 329 15.8 103040 62
2004-06-14 06:40:57 51°14.507 2°54.775 7.9 328 15.8 103040 62
2004-06-14 06:41:02 51°14.518 2°54.75 8.1 326 15.8 103040 63
2004-06-14 06:41:07 51°14.528 2°54.724 8.4 330 15.8 103040 63
2004-06-14 06:41:12 51°14.536 2°54.696 9.3 328 15.8 103050 63
2004-06-14 06:41:17 51°14.542 2°54.668 8.6 328 15.8 103050 63
2004-06-14 06:41:22 51°14.547 2°54.638 10 334 15.9 103040 64
2004-06-14 06:41:27 51°14.55 2°54.609 10.5 334 15.9 103040 64
2004-06-14 06:41:30 51°14.551 2°54.591 10.2 342 15.9 103040 64
2004-06-14 06:41:37 51°14.552 2°54.548 10.5 343 15.9 103040 64
2004-06-14 06:41:42 51°14.552 2°54.517 10.3 344 15.9 103040 64
2004-06-14 06:41:47 51°14.551 2°54.487 10.8 343 15.9 103040 64
2004-06-14 06:41:50 51°14.55 2°54.468 11.1 343 15.9 103040 65
2004-06-14 06:41:57 51°14.547 2°54.426 10.9 347 15.9 103040 65
2004-06-14 06:42:02 51°14.542 2°54.396 11.5 347 15.9 103040 65
2004-06-14 06:42:07 51°14.536 2°54.367 12.1 350 15.9 103040 65
2004-06-14 06:42:10 51°14.532 2°54.35 11.1 353 15.9 103040 65
2004-06-14 06:42:17 51°14.521 2°54.31 11 347 15.9 103040 65
2004-06-14 06:42:22 51°14.512 2°54.283 10.7 350 15.9 103030 65
2004-06-14 06:42:25 51°14.507 2°54.266 11.5 350 15.9 103030 65
2004-06-14 06:42:31 51°14.497 2°54.233 11.2 352 15.8 103030 65
2004-06-14 06:42:38 51°14.483 2°54.195 11 351 15.8 103030 65
2004-06-14 06:42:42 51°14.476 2°54.173 11.3 350 15.8 103040 65
2004-06-14 06:42:47 51°14.466 2°54.147 11.4 353 15.8 103040 65
2004-06-14 06:42:51 51°14.458 2°54.126 11.2 352 15.8 103030 65
2004-06-14 06:42:57 51°14.447 2°54.093 11.4 349 15.8 103030 65
2004-06-14 06:43:02 51°14.438 2°54.067 12 355 15.8 103030 65
2004-06-14 06:43:07 51°14.428 2°54.041 11.9 352 15.8 103030 65
2004-06-14 06:43:12 51°14.418 2°54.014 12.1 353 15.8 103040 65
2004-06-14 06:43:17 51°14.407 2°53.988 12.2 352 15.8 103040 65
2004-06-14 06:43:22 51°14.397 2°53.962 11.7 352 15.8 103040 65
2004-06-14 06:43:27 51°14.386 2°53.936 11.9 356 15.8 103040 65
2004-06-14 06:43:31 51°14.377 2°53.915 12.2 355 15.8 103030 64
2004-06-14 06:43:37 51°14.365 2°53.883 12.2 354 15.8 103030 64
2004-06-14 06:43:42 51°14.355 2°53.857 11.3 357 15.8 103040 65
2004-06-14 06:43:47 51°14.344 2°53.831 12 359 15.8 103040 65
2004-06-14 06:43:53 51°14.332 2°53.798 11.9 356 15.8 103040 64
2004-06-14 06:43:57 51°14.324 2°53.777 11.3 355 15.8 103040 64
2004-06-14 06:44:01 51°14.315 2°53.756 11.2 353 15.8 103030 64
2004-06-14 06:44:07 51°14.303 2°53.723 10.9 352 15.8 103030 64
2004-06-14 06:44:12 51°14.292 2°53.698 10.6 352 15.8 103030 65
2004-06-14 06:44:17 51°14.282 2°53.67 10.8 351 15.8 103030 65
2004-06-14 06:44:22 51°14.271 2°53.644 10.8 353 15.8 103030 65
2004-06-14 06:44:27 51°14.261 2°53.617 11.4 358 15.8 103030 65
2004-06-14 06:44:31 51°14.253 2°53.596 11.9 355 15.8 103040 65
2004-06-14 06:44:37 51°14.24 2°53.564 11.9 351 15.8 103040 65
2004-06-14 06:44:42 51°14.23 2°53.536 12.1 356 15.8 103040 66
2004-06-14 06:44:47 51°14.22 2°53.51 11.4 351 15.8 103040 66
2004-06-14 06:44:53 51°14.208 2°53.477 11.8 352 15.8 103030 66
2004-06-14 06:44:57 51°14.199 2°53.455 11.5 354 15.8 103030 66
2004-06-14 06:45:01 51°14.192 2°53.433 11.8 354 15.7 103030 65
2004-06-14 06:45:07 51°14.179 2°53.401 11.5 353 15.7 103030 65
2004-06-14 06:45:12 51°14.169 2°53.374 11.7 355 15.7 103030 65
2004-06-14 06:45:17 51°14.158 2°53.347 11.9 352 15.7 103030 65
2004-06-14 06:45:22 51°14.148 2°53.32 12.1 355 15.7 103030 66
2004-06-14 06:45:27 51°14.137 2°53.293 11.7 352 15.7 103030 66
2004-06-14 06:45:31 51°14.128 2°53.272 11.4 353 15.7 103030 66
2004-06-14 06:45:37 51°14.116 2°53.239 11.8 357 15.7 103030 66
2004-06-14 06:45:42 51°14.105 2°53.212 11.6 353 15.7 103030 66
2004-06-14 06:45:47 51°14.094 2°53.186 11 354 15.7 103030 66
2004-06-14 06:45:51 51°14.086 2°53.164 12.1 351 15.7 103030 66
2004-06-14 06:45:57 51°14.073 2°53.132 11.7 356 15.7 103030 66
2004-06-14 06:46:02 51°14.062 2°53.105 12.1 352 15.7 103030 66
2004-06-14 06:46:04 51°14.058 2°53.094 12.1 357 15.7 103030 66
2004-06-14 06:46:12 51°14.042 2°53.05 12 357 15.7 103030 66
2004-06-14 06:46:17 51°14.031 2°53.023 11.1 353 15.7 103030 66
2004-06-14 06:46:22 51°14.02 2°52.996 11.3 354 15.7 103030 66
2004-06-14 06:46:27 51°14.01 2°52.969 11.3 352 15.7 103030 66
2004-06-14 06:46:32 51°13.999 2°52.942 11.4 355 15.7 103030 66
2004-06-14 06:46:37 51°13.988 2°52.915 12.2 354 15.7 103030 66
2004-06-14 06:46:42 51°13.978 2°52.887 12.3 354 15.7 103030 67
2004-06-14 06:46:47 51°13.967 2°52.86 11.5 353 15.7 103030 67
2004-06-14 06:46:51 51°13.959 2°52.839 10.8 354 15.7 103030 67
2004-06-14 06:46:57 51°13.946 2°52.806 11.5 353 15.7 103030 67
2004-06-14 06:47:02 51°13.936 2°52.779 11.5 354 15.7 103030 67
2004-06-14 06:47:07 51°13.925 2°52.752 12.1 356 15.7 103030 67
2004-06-14 06:47:12 51°13.914 2°52.724 11 352 15.7 103030 67
2004-06-14 06:47:17 51°13.904 2°52.697 12.1 353 15.7 103030 67
2004-06-14 06:47:22 51°13.893 2°52.67 11.8 354 15.7 103020 67
2004-06-14 06:47:27 51°13.883 2°52.642 12 353 15.7 103020 67
2004-06-14 06:47:32 51°13.872 2°52.616 11.5 355 15.7 103030 67
2004-06-14 06:47:37 51°13.862 2°52.588 11.6 351 15.7 103030 67
2004-06-14 06:47:42 51°13.851 2°52.561 11.6 354 15.7 103040 67
2004-06-14 06:47:47 51°13.84 2°52.534 11.9 353 15.7 103040 67
2004-06-14 06:47:50 51°13.834 2°52.518 11.5 357 15.7 103030 67
2004-06-14 06:47:57 51°13.819 2°52.48 11.4 354 15.7 103030 67
2004-06-14 06:48:02 51°13.809 2°52.453 12 357 15.6 103030 67
2004-06-14 06:48:07 51°13.798 2°52.426 11.7 355 15.6 103030 67
2004-06-14 06:48:12 51°13.788 2°52.398 10.5 356 15.6 103030 68
2004-06-14 06:48:17 51°13.776 2°52.372 11.4 358 15.6 103030 68
2004-06-14 06:48:22 51°13.767 2°52.344 11.1 353 15.6 103040 67
2004-06-14 06:48:27 51°13.755 2°52.317 11.8 355 15.6 103040 67
2004-06-14 06:48:32 51°13.745 2°52.29 11.7 356 15.6 103030 68
2004-06-14 06:48:37 51°13.735 2°52.262 11.1 351 15.6 103030 68
2004-06-14 06:48:42 51°13.724 2°52.235 11.5 354 15.6 103020 68
2004-06-14 06:48:47 51°13.714 2°52.207 11.3 353 15.6 103020 68
2004-06-14 06:48:51 51°13.705 2°52.186 11 354 15.6 103030 69
2004-06-14 06:48:57 51°13.693 2°52.153 11.8 352 15.6 103030 69
2004-06-14 06:49:02 51°13.682 2°52.126 11.3 353 15.6 103030 69
2004-06-14 06:49:06 51°13.673 2°52.104 11.6 352 15.6 103030 69
2004-06-14 06:49:11 51°13.663 2°52.076 11.6 355 15.6 103030 69
2004-06-14 06:49:17 51°13.651 2°52.043 10.9 355 15.6 103030 69
2004-06-14 06:49:21 51°13.642 2°52.022 11.6 359 15.6 103020 69
2004-06-14 06:49:27 51°13.629 2°51.989 11.6 359 15.6 103020 69
2004-06-14 06:49:29 51°13.625 2°51.978 11.8 359 15.6 103020 69
2004-06-14 06:49:37 51°13.608 2°51.934 12.1   15.6 103020 69
2004-06-14 06:49:41 51°13.6 2°51.912 11.2 358 15.6 103030 70
2004-06-14 06:49:47 51°13.587 2°51.879 10.8 359 15.6 103030 70
2004-06-14 06:49:52 51°13.577 2°51.851 11.5 357 15.6 103030 70
2004-06-14 06:49:57 51°13.566 2°51.824 11.5   15.6 103030 70
2004-06-14 06:50:02 51°13.556 2°51.797 11.8 358 15.6 103030 70
2004-06-14 06:50:07 51°13.545 2°51.77 10.6 356 15.6 103030 70
2004-06-14 06:50:11 51°13.536 2°51.748 11.9 354 15.6 103020 70
2004-06-14 06:50:17 51°13.524 2°51.715 10.9 357 15.6 103020 70
2004-06-14 06:50:22 51°13.514 2°51.687 10.7 358 15.6 103030 70
2004-06-14 06:50:27 51°13.503 2°51.66 11.2 1 15.6 103030 70
2004-06-14 06:50:31 51°13.495 2°51.638 11.4 358 15.6 103030 70
2004-06-14 06:50:37 51°13.482 2°51.606 11.7 357 15.6 103030 70
2004-06-14 06:50:42 51°13.471 2°51.578 12.4 353 15.6 103030 70
2004-06-14 06:50:47 51°13.461 2°51.55 12.2 357 15.6 103030 70
2004-06-14 06:50:52 51°13.451 2°51.523 11.4 359 15.6 103030 70
2004-06-14 06:50:57 51°13.44 2°51.495 12.5 359 15.6 103030 70
2004-06-14 06:51:02 51°13.43 2°51.467 11.5 2 15.6 103030 69
2004-06-14 06:51:07 51°13.419 2°51.44 11.9 359 15.6 103030 69
2004-06-14 06:51:12 51°13.409 2°51.412 11.6 359 15.6 103020 69
2004-06-14 06:51:18 51°13.396 2°51.38 11.8 358 15.6 103020 69
2004-06-14 06:51:21 51°13.389 2°51.363 11.6 357 15.6 103030 69
2004-06-14 06:51:27 51°13.376 2°51.33 11.1 357 15.6 103030 69
2004-06-14 06:51:29 51°13.372 2°51.319 11.9 355 15.6 103030 69
2004-06-14 06:51:37 51°13.355 2°51.276 12.4 355 15.6 103030 69
2004-06-14 06:51:41 51°13.347 2°51.254 11.9 356 15.6 103030 69
2004-06-14 06:51:47 51°13.334 2°51.221 11.4 355 15.6 103030 69
2004-06-14 06:51:52 51°13.323 2°51.194 11.3 357 15.6 103020 68
2004-06-14 06:51:57 51°13.313 2°51.166 12.2 353 15.6 103020 68
2004-06-14 06:52:02 51°13.302 2°51.139 12 357 15.6 103030 68
2004-06-14 06:52:07 51°13.292 2°51.111 11.8 359 15.6 103030 68
2004-06-14 06:52:11 51°13.284 2°51.089 11.3 358 15.6 103030 68
2004-06-14 06:52:17 51°13.271 2°51.056 11.9 359 15.6 103030 68
2004-06-14 06:52:22 51°13.26 2°51.029 12.2 354 15.6 103030 68
2004-06-14 06:52:27 51°13.25 2°51.001 11.4 2 15.6 103030 68
2004-06-14 06:52:31 51°13.241 2°50.979 11.8   15.6 103020 68
2004-06-14 06:52:37 51°13.229 2°50.946 11.4   15.6 103020 68
2004-06-14 06:52:42 51°13.217 2°50.92 12.5 359 15.6 103030 68
2004-06-14 06:52:47 51°13.208 2°50.891 12.3 360 15.6 103030 68
2004-06-14 06:52:51 51°13.199 2°50.87 12.4 360 15.6 103030 69
2004-06-14 06:52:57 51°13.186 2°50.837 12.2 359 15.6 103030 69
2004-06-14 06:53:02 51°13.176 2°50.81 11.9 3 15.6 103030 68
2004-06-14 06:53:07 51°13.165 2°50.782 12.5   15.6 103030 68
2004-06-14 06:53:12 51°13.155 2°50.754 12 359 15.6 103030 68
2004-06-14 06:53:17 51°13.144 2°50.727 12.7 359 15.6 103030 68
2004-06-14 06:53:22 51°13.134 2°50.699 12.5 359 15.6 103030 67
2004-06-14 06:53:26 51°13.125 2°50.678 11.9 359 15.6 103030 67
2004-06-14 06:53:32 51°13.113 2°50.645 13.3 1 15.6 103030 67
2004-06-14 06:53:37 51°13.102 2°50.617 12.8 4 15.6 103030 67
2004-06-14 06:53:41 51°13.094 2°50.595 12.2 6 15.6 103030 67
2004-06-14 06:53:47 51°13.081 2°50.562 12.2 4 15.6 103030 67
2004-06-14 06:53:51 51°13.073 2°50.54 12.1 4 15.6 103030 67
2004-06-14 06:53:57 51°13.061 2°50.508 11.7 3 15.6 103030 67
2004-06-14 06:54:02 51°13.05 2°50.48 11.8 4 15.7 103030 67
2004-06-14 06:54:07 51°13.04 2°50.453 11.4 3 15.7 103030 67
2004-06-14 06:54:12 51°13.03 2°50.425 11.5 2 15.7 103030 67
2004-06-14 06:54:17 51°13.019 2°50.398 11.8 5 15.7 103030 67
2004-06-14 06:54:22 51°13.009 2°50.37 12.1 6 15.7 103030 66
2004-06-14 06:54:27 51°12.998 2°50.344 11.7 4 15.7 103030 66
2004-06-14 06:54:31 51°12.989 2°50.322 12.3 1 15.7 103030 67
2004-06-14 06:54:37 51°12.976 2°50.29 12 4 15.7 103030 67
2004-06-14 06:54:42 51°12.965 2°50.263 12.4 3 15.7 103030 68
2004-06-14 06:54:47 51°12.954 2°50.237 11.8 4 15.7 103030 68
2004-06-14 06:54:52 51°12.943 2°50.21 12.7 10 15.7 103030 67
2004-06-14 06:54:57 51°12.932 2°50.183 11.8 1 15.7 103030 67
2004-06-14 06:55:02 51°12.921 2°50.157 12.9 8 15.7 103030 66
2004-06-14 06:55:07 51°12.91 2°50.13 12.1 2 15.7 103030 66
2004-06-14 06:55:11 51°12.9 2°50.109 12.3 3 15.7 103030 67
2004-06-14 06:55:18 51°12.885 2°50.071 11.9 3 15.7 103030 67
2004-06-14 06:55:22 51°12.876 2°50.05 12.5 7 15.7 103030 66
2004-06-14 06:55:27 51°12.866 2°50.023 11.6 5 15.7 103030 66
2004-06-14 06:55:31 51°12.856 2°50.002 11.6 7 15.7 103040 66
2004-06-14 06:55:37 51°12.844 2°49.97 12 6 15.7 103040 66
2004-06-14 06:55:42 51°12.832 2°49.943 12.1 5 15.7 103030 66
2004-06-14 06:55:47 51°12.821 2°49.916 11.9 6 15.7 103030 66
2004-06-14 06:55:51 51°12.813 2°49.895 12.4 8 15.7 103030 66
2004-06-14 06:55:57 51°12.799 2°49.863 12 4 15.7 103030 66
2004-06-14 06:56:02 51°12.788 2°49.836 12.5 1 15.8 103040 66
2004-06-14 06:56:07 51°12.777 2°49.809 11.3 3 15.8 103040 66
2004-06-14 06:56:12 51°12.766 2°49.782 12.6 4 15.8 103030 66
2004-06-14 06:56:17 51°12.756 2°49.755 12.7 6 15.8 103030 66
2004-06-14 06:56:22 51°12.744 2°49.729 12.3 10 15.8 103030 66
2004-06-14 06:56:27 51°12.734 2°49.701 12.5 6 15.8 103030 66
2004-06-14 06:56:31 51°12.725 2°49.68 12.2 8 15.8 103040 66
2004-06-14 06:56:37 51°12.712 2°49.648 12.2 2 15.8 103040 66
2004-06-14 06:56:42 51°12.701 2°49.622 12.1 4 15.8 103030 64
2004-06-14 06:56:47 51°12.69 2°49.595 12.3 2 15.8 103030 64
2004-06-14 06:56:52 51°12.679 2°49.568 12.8 5 15.8 103030 64
2004-06-14 06:56:57 51°12.669 2°49.541 12.5 8 15.8 103030 64
2004-06-14 06:57:02 51°12.658 2°49.514 12.7 9 15.8 103040 64
2004-06-14 06:57:07 51°12.647 2°49.487 12.2 6 15.8 103040 64
2004-06-14 06:57:12 51°12.636 2°49.46 12.3 6 15.8 103040 64
2004-06-14 06:57:17 51°12.626 2°49.433 12.3 8 15.8 103040 64
2004-06-14 06:57:22 51°12.615 2°49.407 12.2 5 15.9 103030 64
2004-06-14 06:57:27 51°12.604 2°49.38 12.3 9 15.9 103030 64
2004-06-14 06:57:32 51°12.592 2°49.353 12 4 15.9 103030 64
2004-06-14 06:57:37 51°12.581 2°49.327 12.6 4 15.9 103030 64
2004-06-14 06:57:42 51°12.571 2°49.3 12.9 3 15.9 103040 64
2004-06-14 06:57:52 51°12.549 2°49.247 12.3 3 15.9 103030 64
2004-06-14 06:57:57 51°12.538 2°49.22 12.3 5 15.9 103030 64
2004-06-14 06:58:02 51°12.527 2°49.193 12.6 2 15.9 103030 64
2004-06-14 06:58:07 51°12.517 2°49.166 11.8 2 15.9 103030 64
2004-06-14 06:58:12 51°12.507 2°49.139 12.2 6 15.9 103030 65
2004-06-14 06:58:17 51°12.497 2°49.11 12 3 15.9 103030 65
2004-06-14 06:58:22 51°12.488 2°49.082 12.6 4 15.9 103030 64
2004-06-14 06:58:27 51°12.479 2°49.055 11.8 2 15.9 103030 64
2004-06-14 06:58:32 51°12.469 2°49.026 11.4 3 15.9 103040 66
2004-06-14 06:58:37 51°12.46 2°48.998 12 2 15.9 103040 66
2004-06-14 06:58:42 51°12.451 2°48.97 12 4 15.9 103040 66
2004-06-14 06:58:53 51°12.431 2°48.908 12.8 1 15.9 103030 65
2004-06-14 06:58:58 51°12.421 2°48.88 12 358 15.9 103030 65
2004-06-14 06:59:03 51°12.412 2°48.852 12.4 1 15.9 103030 65
2004-06-14 06:59:08 51°12.403 2°48.824 12.7 1 15.9 103030 65
2004-06-14 06:59:13 51°12.393 2°48.796 12.8 2 15.9 103040 65
2004-06-14 06:59:18 51°12.384 2°48.768 12.7   15.9 103040 65
2004-06-14 06:59:23 51°12.374 2°48.74 12.5 1 15.9 103030 65
2004-06-14 06:59:27 51°12.367 2°48.718 12.1 360 15.9 103030 65
2004-06-14 06:59:33 51°12.356 2°48.684 12.8 4 15.8 103030 65
2004-06-14 06:59:38 51°12.346 2°48.657 12.1 5 15.8 103030 65
2004-06-14 06:59:43 51°12.336 2°48.628 11.9 7 15.8 103030 65
2004-06-14 06:59:48 51°12.327 2°48.601 12.2 2 15.8 103030 65
2004-06-14 06:59:53 51°12.317 2°48.573 11.4   15.8 103030 65
2004-06-14 06:59:58 51°12.308 2°48.545 12.9 357 15.8 103030 65
2004-06-14 07:00:02 51°12.3 2°48.523 12.5 3 15.8 103030 64
2004-06-14 07:00:07 51°12.291 2°48.495 12 2 15.8 103030 64
2004-06-14 07:00:13 51°12.28 2°48.461 12 1 15.8 103030 65
2004-06-14 07:00:18 51°12.27 2°48.433 12.4 3 15.8 103030 65
2004-06-14 07:00:23 51°12.261 2°48.405 12 3 15.8 103040 66
2004-06-14 07:00:28 51°12.251 2°48.377 12.2 5 15.8 103040 66
2004-06-14 07:00:33 51°12.242 2°48.349 11.9 2 15.8 103030 66
2004-06-14 07:00:38 51°12.232 2°48.322 12.1 2 15.8 103030 66
2004-06-14 07:00:43 51°12.224 2°48.293 12 1 15.8 103030 65
2004-06-14 07:00:48 51°12.213 2°48.266 12.6 4 15.8 103030 65
2004-06-14 07:00:53 51°12.205 2°48.237 12 359 15.8 103030 65
2004-06-14 07:00:58 51°12.195 2°48.21 12.6   15.8 103030 65
2004-06-14 07:01:02 51°12.188 2°48.188 12.6   15.8 103030 66
2004-06-14 07:01:07 51°12.178 2°48.16 12.2 3 15.8 103030 66
2004-06-14 07:01:13 51°12.167 2°48.127 11.8 2 15.8 103030 66
2004-06-14 07:01:18 51°12.158 2°48.099 12.1 4 15.8 103030 66
2004-06-14 07:01:23 51°12.149 2°48.071 12.4 2 15.8 103020 66
2004-06-14 07:01:27 51°12.141 2°48.049 11.9 2 15.8 103020 66
2004-06-14 07:01:33 51°12.13 2°48.015 11.3 359 15.8 103030 66
2004-06-14 07:01:38 51°12.12 2°47.987 12.2 358 15.8 103030 66
2004-06-14 07:01:43 51°12.112 2°47.959 12 360 15.8 103030 66
2004-06-14 07:01:48 51°12.104 2°47.931 12.1 360 15.8 103030 66
2004-06-14 07:01:53 51°12.096 2°47.901 11.3 359 15.8 103030 65
2004-06-14 07:01:58 51°12.089 2°47.872 11.3 359 15.8 103030 65
2004-06-14 07:02:03 51°12.081 2°47.843 11.6   15.8 103040 66
2004-06-14 07:02:08 51°12.074 2°47.814 12.4 359 15.8 103040 66
2004-06-14 07:02:13 51°12.067 2°47.784 11.7 356 15.8 103040 65
2004-06-14 07:02:18 51°12.06 2°47.755 13 357 15.8 103040 65
2004-06-14 07:02:23 51°12.052 2°47.726 12.8 359 15.8 103030 66
2004-06-14 07:02:28 51°12.045 2°47.696 12.9 360 15.8 103030 66
2004-06-14 07:02:33 51°12.037 2°47.667 12.7 1 15.8 103030 66
2004-06-14 07:02:38 51°12.03 2°47.638 13.1 358 15.8 103030 66
2004-06-14 07:02:43 51°12.022 2°47.609 12.5 358 15.8 103020 65
2004-06-14 07:02:49 51°12.013 2°47.574 12.6   15.8 103020 65
2004-06-14 07:02:53 51°12.007 2°47.55 12.5   15.8 103030 64
2004-06-14 07:02:58 51°12 2°47.521 12.6 357 15.8 103030 64
2004-06-14 07:03:01 51°11.995 2°47.504 12.5 358 15.8 103030 63
2004-06-14 07:03:07 51°11.987 2°47.469 12.4 356 15.8 103030 63
2004-06-14 07:03:13 51°11.978 2°47.434 12.3 358 15.8 103030 63
2004-06-14 07:03:18 51°11.97 2°47.404 12.3 358 15.8 103030 63
2004-06-14 07:03:23 51°11.963 2°47.375 12.8 358 15.8 103030 63
2004-06-14 07:03:27 51°11.957 2°47.352 12.4 354 15.8 103030 63
2004-06-14 07:03:33 51°11.947 2°47.318 12.5 354 15.9 103030 62
2004-06-14 07:03:38 51°11.94 2°47.288 12.5 354 15.9 103030 62
2004-06-14 07:03:43 51°11.933 2°47.259 12.3 356 15.9 103030 63
2004-06-14 07:03:49 51°11.924 2°47.224 12.6 355 15.9 103030 63
2004-06-14 07:03:53 51°11.918 2°47.201 12.6 354 15.9 103030 63
2004-06-14 07:03:58 51°11.91 2°47.172 11.7 358 15.9 103030 63
2004-06-14 07:04:01 51°11.906 2°47.154 11.8 356 15.9 103030 63
2004-06-14 07:04:07 51°11.897 2°47.119 12.6 356 15.9 103030 63
2004-06-14 07:04:13 51°11.888 2°47.084 12.9 354 15.9 103020 63
2004-06-14 07:04:17 51°11.882 2°47.061 12.2 354 15.9 103020 63
2004-06-14 07:04:23 51°11.873 2°47.026 12.3 356 15.9 103020 64
2004-06-14 07:04:28 51°11.866 2°46.997 12.3 355 15.9 103020 64
2004-06-14 07:04:33 51°11.858 2°46.968 12.4 355 15.9 103040 63
2004-06-14 07:04:38 51°11.851 2°46.938 12.2 354 15.9 103040 63
2004-06-14 07:04:43 51°11.843 2°46.909 12 355 15.9 103020 63
2004-06-14 07:04:48 51°11.836 2°46.88 13 355 15.9 103020 63
2004-06-14 07:04:53 51°11.828 2°46.851 12.8 355 15.9 103030 62
2004-06-14 07:04:58 51°11.821 2°46.821 12.2 354 15.9 103030 62
2004-06-14 07:05:03 51°11.814 2°46.792 12.4 357 15.9 103030 62
2004-06-14 07:05:09 51°11.805 2°46.757 11.9 359 15.9 103030 62
2004-06-14 07:05:13 51°11.799 2°46.734 12.3 359 15.9 103030 63
2004-06-14 07:05:18 51°11.791 2°46.705 12.6 359 15.9 103030 63
2004-06-14 07:05:23 51°11.784 2°46.676 12.5   15.9 103030 62
2004-06-14 07:05:28 51°11.776 2°46.647 11.9 355 15.9 103030 62
2004-06-14 07:05:33 51°11.769 2°46.617 12.8 357 15.9 103020 62
2004-06-14 07:05:38 51°11.761 2°46.588 12.2 354 15.9 103020 62
2004-06-14 07:05:43 51°11.754 2°46.559 12.6 353 15.9 103030 62
2004-06-14 07:05:46 51°11.749 2°46.541 12.7 354 15.9 103030 62
2004-06-14 07:05:53 51°11.739 2°46.5 12.5 355 16 103030 63
2004-06-14 07:05:58 51°11.732 2°46.471 12.4 351 16 103030 63
2004-06-14 07:06:03 51°11.724 2°46.442 13.2 355 16 103020 64
2004-06-14 07:06:07 51°11.718 2°46.419 12.2 355 16 103020 64
2004-06-14 07:06:13 51°11.709 2°46.384 12.1 354 16 103020 63
2004-06-14 07:06:17 51°11.703 2°46.361 12.4 353 16 103020 63
2004-06-14 07:06:23 51°11.694 2°46.325 11.9 355 16 103020 63
2004-06-14 07:06:28 51°11.687 2°46.296 12.9 352 16 103020 63
2004-06-14 07:06:33 51°11.68 2°46.266 13 351 16 103020 63
2004-06-14 07:06:38 51°11.674 2°46.236 12.5 350 16 103020 63
2004-06-14 07:06:43 51°11.668 2°46.206 12.6 351 16 103020 63
2004-06-14 07:06:47 51°11.663 2°46.183 12.6 350 16 103020 63
2004-06-14 07:06:53 51°11.656 2°46.146 12.3 350 16 103020 63
2004-06-14 07:06:58 51°11.65 2°46.116 12.6 349 16 103020 63
2004-06-14 07:07:03 51°11.644 2°46.086 11.9 350 16 103010 63
2004-06-14 07:07:07 51°11.639 2°46.062 12.4 351 16 103010 63
2004-06-14 07:07:13 51°11.632 2°46.026 13 350 16 103010 62
2004-06-14 07:07:17 51°11.628 2°46.002 12.3 350 16 103010 62
2004-06-14 07:07:23 51°11.621 2°45.966 12.3 349 16 103010 62
2004-06-14 07:07:28 51°11.615 2°45.936 12.4 349 16 103010 62
2004-06-14 07:07:33 51°11.609 2°45.906 11.8 354 16 103020 62
2004-06-14 07:07:37 51°11.604 2°45.882 12.1 352 16 103020 62
2004-06-14 07:07:43 51°11.597 2°45.846 12.3 353 16 103020 62
2004-06-14 07:07:48 51°11.591 2°45.816 12.4 352 16 103020 62
2004-06-14 07:07:53 51°11.585 2°45.786 12.2 350 16 103020 62
2004-06-14 07:07:58 51°11.579 2°45.755 12.4 346 16 103020 62
2004-06-14 07:08:03 51°11.574 2°45.725 12 347 16 103020 62
2004-06-14 07:08:07 51°11.569 2°45.701 12.1 353 16 103020 62
2004-06-14 07:08:13 51°11.562 2°45.665 12.2 354 16 103020 62
2004-06-14 07:08:17 51°11.557 2°45.641 12.3 352 16 103020 62
2004-06-14 07:08:23 51°11.55 2°45.605 12 351 16 103020 62
2004-06-14 07:08:29 51°11.543 2°45.569 12.4 351 16 103020 62
2004-06-14 07:08:33 51°11.539 2°45.544 12.8 347 16 103020 62
2004-06-14 07:08:38 51°11.533 2°45.514 12.6 351 16 103020 62
2004-06-14 07:08:43 51°11.527 2°45.484 12.1 353 16.1 103020 63
2004-06-14 07:08:46 51°11.523 2°45.465 12.4 351 16.1 103020 63
2004-06-14 07:08:53 51°11.515 2°45.423 13.4 351 16 103010 62
2004-06-14 07:08:58 51°11.51 2°45.393 12.6 353 16 103010 62
2004-06-14 07:09:03 51°11.504 2°45.363 13 353 16 103010 61
2004-06-14 07:09:07 51°11.499 2°45.339 12.4 352 16 103010 61
2004-06-14 07:09:13 51°11.492 2°45.302 12.2 352 16 103020 61
2004-06-14 07:09:18 51°11.486 2°45.272 12.7 348 16 103020 61
2004-06-14 07:09:22 51°11.481 2°45.248 11.8 349 16 103010 60
2004-06-14 07:09:29 51°11.473 2°45.206 12.5 355 16 103010 60
2004-06-14 07:09:33 51°11.468 2°45.182 13.1 352 16 103020 60
2004-06-14 07:09:38 51°11.462 2°45.152 12.8 355 16 103020 60
2004-06-14 07:09:41 51°11.459 2°45.134 12.9 354 16.1 103020 60
2004-06-14 07:09:47 51°11.452 2°45.098 12.8 354 16.1 103020 60
2004-06-14 07:09:53 51°11.444 2°45.062 12.2 355 16 103020 60
2004-06-14 07:09:57 51°11.44 2°45.038 12.6 351 16 103020 60
2004-06-14 07:10:03 51°11.433 2°45.002 11.8 353 16 103030 60
2004-06-14 07:10:08 51°11.426 2°44.971 12.4 354 16 103030 60
2004-06-14 07:10:13 51°11.421 2°44.941 12 352 16 103020 60
2004-06-14 07:10:18 51°11.415 2°44.911 12 349 16 103020 60
2004-06-14 07:10:23 51°11.409 2°44.881 12.7 351 16.1 103020 61
2004-06-14 07:10:28 51°11.403 2°44.851 12.3 355 16.1 103020 61
2004-06-14 07:10:33 51°11.397 2°44.82 12.1 355 16.1 103020 60
2004-06-14 07:10:37 51°11.392 2°44.797 13.4 351 16.1 103020 60
2004-06-14 07:10:43 51°11.385 2°44.761 12.7 351 16.1 103020 60
2004-06-14 07:10:47 51°11.381 2°44.736 12.6 350 16.1 103020 60
2004-06-14 07:10:53 51°11.373 2°44.7 12.6 353 16.1 103020 61
2004-06-14 07:10:58 51°11.367 2°44.67 12.7 349 16.1 103020 61
2004-06-14 07:11:02 51°11.362 2°44.646 12.6 352 16.1 103030 60
2004-06-14 07:11:07 51°11.357 2°44.616 12.3 349 16.1 103030 60
2004-06-14 07:11:13 51°11.35 2°44.58 12.3 355 16.1 103020 60
2004-06-14 07:11:18 51°11.344 2°44.55 12.8 355 16.1 103020 60
2004-06-14 07:11:23 51°11.338 2°44.52 12.4 352 16.1 103020 60
2004-06-14 07:11:28 51°11.332 2°44.49 12.6 353 16.1 103020 60
2004-06-14 07:11:33 51°11.325 2°44.46 12.6 354 16.1 103020 60
2004-06-14 07:11:37 51°11.321 2°44.436 13.1 351 16.1 103020 60
2004-06-14 07:11:43 51°11.313 2°44.4 12.5 353 16.1 103020 60
2004-06-14 07:11:49 51°11.307 2°44.364 12.3 354 16.1 103020 60
2004-06-14 07:11:53 51°11.302 2°44.34 12.3 353 16.1 103020 60
2004-06-14 07:11:58 51°11.296 2°44.31 12.6 351 16.1 103020 60
2004-06-14 07:12:03 51°11.29 2°44.28 12.4 354 16.1 103020 60
2004-06-14 07:12:07 51°11.286 2°44.256 12.5 354 16.1 103020 60
2004-06-14 07:12:13 51°11.278 2°44.22 12.5 354 16.1 103020 60
2004-06-14 07:12:18 51°11.273 2°44.189 12.6 355 16.1 103020 60
2004-06-14 07:12:22 51°11.268 2°44.166 12.5 354 16.1 103030 60
2004-06-14 07:12:29 51°11.26 2°44.124 12.6 355 16.1 103030 60
2004-06-14 07:12:33 51°11.256 2°44.099 12 356 16.1 103030 60
2004-06-14 07:12:38 51°11.25 2°44.069 13.1 357 16.1 103030 60
2004-06-14 07:12:43 51°11.244 2°44.039 12.7 355 16.1 103020 61
2004-06-14 07:12:49 51°11.237 2°44.003 13 352 16.1 103020 61
2004-06-14 07:12:53 51°11.232 2°43.979 12 355 16.1 103030 62
2004-06-14 07:12:58 51°11.226 2°43.949 12 356 16.1 103030 62
2004-06-14 07:13:03 51°11.221 2°43.919 12.4 355 16.1 103030 61
2004-06-14 07:13:08 51°11.215 2°43.889 13.1 359 16.1 103030 61
2004-06-14 07:13:13 51°11.209 2°43.859 13.1 358 16.1 103030 62
2004-06-14 07:13:18 51°11.204 2°43.829 12.5 357 16.1 103030 62
2004-06-14 07:13:23 51°11.198 2°43.8 12.6 359 16.1 103030 61
2004-06-14 07:13:29 51°11.191 2°43.764 12.8 356 16.1 103030 61
2004-06-14 07:13:33 51°11.186 2°43.74 12   16.1 103030 61
2004-06-14 07:13:37 51°11.181 2°43.716 12.8 359 16.1 103030 61
2004-06-14 07:13:43 51°11.175 2°43.68 12.6 358 16.1 103030 61
2004-06-14 07:13:48 51°11.168 2°43.65 12.5 2 16.1 103030 61
2004-06-14 07:13:53 51°11.163 2°43.62 13.2 355 16.1 103040 62
2004-06-14 07:13:56 51°11.159 2°43.602 12.4 358 16.1 103040 62
2004-06-14 07:14:02 51°11.153 2°43.565 12.3 356 16.1 103040 62
2004-06-14 07:14:08 51°11.146 2°43.53 12.5 357 16.1 103040 62
2004-06-14 07:14:13 51°11.14 2°43.5 12.7 358 16.1 103050 63
2004-06-14 07:14:18 51°11.134 2°43.47 13 356 16.1 103050 63
2004-06-14 07:14:23 51°11.128 2°43.44 13.5 359 16.1 103030 62
2004-06-14 07:14:28 51°11.123 2°43.41 12.7 359 16.1 103030 62
2004-06-14 07:14:33 51°11.116 2°43.381 12.9 3 16.1 103040 62
2004-06-14 07:14:38 51°11.111 2°43.351 13.1 1 16.1 103040 62
2004-06-14 07:14:43 51°11.105 2°43.321 12.4 4 16.1 103040 62
2004-06-14 07:14:47 51°11.101 2°43.297 13.1 1 16.1 103040 62
2004-06-14 07:14:53 51°11.094 2°43.261 13.1 1 16.1 103050 63
2004-06-14 07:14:57 51°11.089 2°43.237 12.8 359 16.1 103050 63
2004-06-14 07:15:03 51°11.082 2°43.202 12.8 1 16.1 103040 63
2004-06-14 07:15:09 51°11.075 2°43.166 13.3   16.1 103040 63
2004-06-14 07:15:13 51°11.071 2°43.142 13.3 1 16 103050 63
2004-06-14 07:15:18 51°11.065 2°43.112 12.8 3 16 103050 63
2004-06-14 07:15:23 51°11.059 2°43.083 13 4 16.1 103040 63
2004-06-14 07:15:29 51°11.052 2°43.047 12.8 4 16.1 103040 63
2004-06-14 07:15:33 51°11.047 2°43.023 13 4 16 103050 63
2004-06-14 07:15:38 51°11.042 2°42.993 12.8 3 16 103050 63
2004-06-14 07:15:43 51°11.036 2°42.963 12.9 4 16 103030 64
2004-06-14 07:15:48 51°11.03 2°42.934 12.1 4 16 103030 64
2004-06-14 07:15:53 51°11.024 2°42.904 12.3 5 16 103050 64
2004-06-14 07:15:58 51°11.019 2°42.874 13 2 16 103050 64
2004-06-14 07:16:03 51°11.013 2°42.844 12.5 3 16 103040 64
2004-06-14 07:16:07 51°11.008 2°42.82 12.1 1 16 103040 64
2004-06-14 07:16:13 51°11.001 2°42.785 12.4 3 16 103050 65
2004-06-14 07:16:18 51°10.996 2°42.755 12.6 5 16 103050 65
2004-06-14 07:16:22 51°10.991 2°42.731 13.2 1 16 103050 65
2004-06-14 07:16:29 51°10.983 2°42.689 13.5 2 16 103050 65
2004-06-14 07:16:33 51°10.979 2°42.665 13.2 4 16.1 103050 66
2004-06-14 07:16:38 51°10.973 2°42.636 12.6 5 16.1 103050 66
2004-06-14 07:16:43 51°10.968 2°42.606 12.5 2 16 103040 66
2004-06-14 07:16:49 51°10.961 2°42.57 12.7 5 16 103040 66
2004-06-14 07:16:53 51°10.957 2°42.546 12.9 4 16 103040 66
2004-06-14 07:16:58 51°10.951 2°42.516 12.5 5 16 103040 66
2004-06-14 07:17:03 51°10.946 2°42.486 12.7 3 16 103050 66
2004-06-14 07:17:08 51°10.94 2°42.457 13.4 1 16 103050 66
2004-06-14 07:17:13 51°10.934 2°42.427 13.6 359 16 103050 66
2004-06-14 07:17:18 51°10.929 2°42.397 13 2 16 103050 66
2004-06-14 07:17:23 51°10.925 2°42.368 12.4 359 16 103040 66
2004-06-14 07:17:29 51°10.922 2°42.334 12 357 16 103040 66
2004-06-14 07:17:33 51°10.92 2°42.311 11.4 350 16 103050 66
2004-06-14 07:17:38 51°10.92 2°42.284 10.7 350 16 103050 66
2004-06-14 07:17:43 51°10.922 2°42.258 10.9 345 16 103050 67
2004-06-14 07:17:48 51°10.925 2°42.233 10.5 340 16 103050 67
2004-06-14 07:17:53 51°10.93 2°42.21 10.6 341 16 103040 67
2004-06-14 07:17:58 51°10.937 2°42.189 9.1 332 16 103040 67
2004-06-14 07:18:03 51°10.945 2°42.171 8.7 330 16 103050 67
2004-06-14 07:18:07 51°10.951 2°42.158 8.6 327 16 103050 67
2004-06-14 07:18:13 51°10.962 2°42.14 8.8 328 16 103050 67
2004-06-14 07:18:18 51°10.97 2°42.128 7.8 323 16 103050 67
2004-06-14 07:18:23 51°10.978 2°42.116 8.2 323 16 103050 68
2004-06-14 07:18:28 51°10.987 2°42.107 7.7 319 16 103050 68
2004-06-14 07:18:33 51°10.995 2°42.098 8 319 16 103060 69
2004-06-14 07:18:38 51°11.004 2°42.091 7.3 311 16 103060 69
2004-06-14 07:18:43 51°11.012 2°42.085 7.5 308 16 103050 69
2004-06-14 07:18:49 51°11.021 2°42.078 7 306 16 103050 69
2004-06-14 07:18:54 51°11.028 2°42.073 6.8 307 16 103050 69
2004-06-14 07:18:59 51°11.036 2°42.069 6.1 300 16 103050 69
2004-06-14 07:19:04 51°11.043 2°42.065 5.9 299 16 103060 69
2004-06-14 07:19:08 51°11.048 2°42.062 6.3 291 16 103060 69
2004-06-14 07:19:14 51°11.056 2°42.059 6.5 291 16 103070 69
2004-06-14 07:19:18 51°11.061 2°42.058 5.9 284 16 103070 69
2004-06-14 07:19:24 51°11.069 2°42.056 6 287 16 103060 68
2004-06-14 07:19:29 51°11.075 2°42.054 5.9 281 16 103060 68
2004-06-14 07:19:34 51°11.081 2°42.053 5.5 286 15.9 103070 69
2004-06-14 07:19:39 51°11.087 2°42.052 5.3 284 15.9 103070 69
2004-06-14 07:19:44 51°11.092 2°42.051 5.6 279 16 103070 69
2004-06-14 07:19:48 51°11.096 2°42.05 6 275 16 103070 69
2004-06-14 07:19:54 51°11.101 2°42.049 6.1 274 15.9 103060 69
2004-06-14 07:19:59 51°11.104 2°42.048 7.2 267 15.9 103060 69
2004-06-14 07:20:03 51°11.106 2°42.048 6.3 265 15.9 103070 69
2004-06-14 07:20:05 51°11.106 2°42.047 6.4 262 15.9 103070 69
2004-06-14 07:20:14 51°11.109 2°42.046 6.5 266 16 103070 70
2004-06-14 07:20:19 51°11.11 2°42.045 5.4 264 16 103070 70
2004-06-14 07:20:24 51°11.111 2°42.045 5.5 267 16 103070 70
2004-06-14 07:20:29 51°11.112 2°42.044 5.8 269 16 103070 70
2004-06-14 07:20:34 51°11.112 2°42.043 5.9 269 15.9 103070 69
2004-06-14 07:20:39 51°11.113 2°42.042 5.9 265 15.9 103070 69
2004-06-14 07:20:43 51°11.114 2°42.042 5.5 269 15.9 103070 69
2004-06-14 07:20:49 51°11.115 2°42.041 5.3 271 15.9 103070 69
2004-06-14 07:20:54 51°11.116 2°42.041 5.6 266 15.9 103070 69
2004-06-14 07:20:59 51°11.117 2°42.04 6 270 15.9 103070 69
2004-06-14 07:21:03 51°11.118 2°42.039 5.4 273 15.9 103070 70
2004-06-14 07:21:16 51°11.121 2°42.037 5.9 275 15.9 103070 70
2004-06-14 07:21:22 51°11.122 2°42.036 5.7 274 15.9 103070 70
2004-06-14 07:21:27 51°11.122 2°42.035 5 276 15.9 103070 70
2004-06-14 07:21:32 51°11.123 2°42.034 5.4 283 15.9 103070 70
2004-06-14 07:21:36 51°11.124 2°42.033 5 275 15.9 103070 70
2004-06-14 07:21:42 51°11.126 2°42.033 5.4 284 15.9 103070 70
2004-06-14 07:21:47 51°11.127 2°42.032 5.7 276 15.9 103070 70
2004-06-14 07:21:52 51°11.128 2°42.032 5.3 280 15.9 103070 70
2004-06-14 07:21:56 51°11.129 2°42.031 5.7 278 15.9 103070 70
2004-06-14 07:22:02 51°11.13 2°42.029 5.9 280 15.9 103070 70
2004-06-14 07:22:05 51°11.13 2°42.029 5.2 286 15.9 103070 70
2004-06-14 07:22:12 51°11.131 2°42.027 5.7 283 15.9 103070 70
2004-06-14 07:22:16 51°11.132 2°42.027 5.1 283 15.9 103070 70
2004-06-14 07:22:22 51°11.133 2°42.025 5.2 284 15.9 103070 70
2004-06-14 07:22:27 51°11.134 2°42.024 5.9 290 15.9 103070 70
2004-06-14 07:22:30 51°11.135 2°42.024 5.2 288 15.9 103070 70
2004-06-14 07:22:36 51°11.136 2°42.023 4.5 284 15.9 103070 70
2004-06-14 07:22:42 51°11.138 2°42.022 5.3 277 15.9 103070 70
2004-06-14 07:22:47 51°11.138 2°42.021 5.3 283 15.9 103070 70
2004-06-14 07:22:52 51°11.139 2°42.02 5.2 284 15.9 103070 71
2004-06-14 07:22:56 51°11.14 2°42.02 5.4 279 15.9 103070 71
2004-06-14 07:23:02 51°11.142 2°42.019 5.3 283 15.9 103070 71
2004-06-14 07:23:07 51°11.142 2°42.018 5.3 282 15.9 103070 71
2004-06-14 07:23:12 51°11.144 2°42.018 5.6 283 15.9 103070 71
2004-06-14 07:23:16 51°11.144 2°42.017 5.5 282 15.9 103070 71
2004-06-14 07:23:22 51°11.145 2°42.015 5.9 278 15.9 103070 71
2004-06-14 07:23:27 51°11.146 2°42.014 5.8 277 15.9 103070 71
2004-06-14 07:23:32 51°11.147 2°42.013 5.1 278 15.9 103070 71
2004-06-14 07:23:37 51°11.148 2°42.012 5.5 274 15.9 103070 71
2004-06-14 07:23:42 51°11.149 2°42.012 6.4 276 15.9 103070 71
2004-06-14 07:23:47 51°11.15 2°42.011 5.5 284 15.9 103070 71
2004-06-14 07:23:52 51°11.151 2°42.01 5.4 286 15.9 103070 71
2004-06-14 07:23:57 51°11.152 2°42.009 4.6 287 15.9 103070 71
2004-06-14 07:24:02 51°11.153 2°42.008 5.2 288 15.9 103060 71
2004-06-14 07:24:05 51°11.153 2°42.008 5.5 280 15.9 103060 71
2004-06-14 07:24:11 51°11.155 2°42.007 2.6 287 15.9 103070 71
2004-06-14 07:24:16 51°11.156 2°42.006 6.3 284 15.9 103070 71
2004-06-14 07:24:22 51°11.157 2°42.005 5.3 287 15.9 103070 71
2004-06-14 07:24:27 51°11.157 2°42.004 5.9 286 15.9 103070 71
2004-06-14 07:24:32 51°11.158 2°42.003 5.3 284 16 103070 72
2004-06-14 07:24:36 51°11.159 2°42.002 4.9 284 16 103070 72
2004-06-14 07:24:42 51°11.16 2°42.002 5.4 288 16 103060 72
2004-06-14 07:24:47 51°11.161 2°42.001 4.5 276 16 103060 72
2004-06-14 07:24:52 51°11.162 2°42 5.3 277 16 103060 72
2004-06-14 07:24:56 51°11.163 2°41.999 4.6 280 16 103060 72
2004-06-14 07:25:02 51°11.164 2°41.998 4.6 284 16 103060 73
2004-06-14 07:25:07 51°11.165 2°41.997 4.5 281 16 103060 73
2004-06-14 07:25:12 51°11.166 2°41.996 5.2 278 16.1 103060 73
2004-06-14 07:25:17 51°11.167 2°41.996 5.5 277 16.1 103060 73
2004-06-14 07:25:22 51°11.168 2°41.995 5.1 277 16 103060 72
2004-06-14 07:25:27 51°11.169 2°41.994 4.9 289 16 103060 72
2004-06-14 07:25:32 51°11.17 2°41.993 5.4 285 16 103060 72
2004-06-14 07:25:37 51°11.171 2°41.992 5 289 16 103060 72
2004-06-14 07:25:42 51°11.172 2°41.991 5.5 288 16 103060 72
2004-06-14 07:25:45 51°11.172 2°41.991 5 291 16 103060 72
2004-06-14 07:25:52 51°11.174 2°41.989 4.8 288 16 103060 72
2004-06-14 07:25:56 51°11.174 2°41.989 4.5 289 16 103060 72
2004-06-14 07:26:02 51°11.175 2°41.988 5.4 286 16 103060 72
2004-06-14 07:26:07 51°11.176 2°41.987 4.5 281 16 103060 72
2004-06-14 07:26:11 51°11.177 2°41.986 4.9 280 16 103060 72
2004-06-14 07:26:15 51°11.178 2°41.986 4.9 281 16 103060 72
2004-06-14 07:26:22 51°11.179 2°41.985 5.4 282 16 103050 72
2004-06-14 07:26:27 51°11.18 2°41.984 5.4 276 16 103050 72
2004-06-14 07:26:32 51°11.181 2°41.983 5.4 276 16 103060 72
2004-06-14 07:26:36 51°11.182 2°41.983 5.3 277 16 103060 72
2004-06-14 07:26:42 51°11.183 2°41.982 4.8 277 16 103060 72
2004-06-14 07:26:47 51°11.184 2°41.981 4.9 283 16 103060 72
2004-06-14 07:26:52 51°11.185 2°41.98 5.2 284 15.9 103050 72
2004-06-14 07:26:56 51°11.186 2°41.98 6.2 276 15.9 103050 72
2004-06-14 07:27:02 51°11.187 2°41.979 5.3 279 16 103060 72
2004-06-14 07:27:06 51°11.188 2°41.978 5.7 274 16 103060 72
2004-06-14 07:27:11 51°11.189 2°41.978 5.6 277 16 103060 72
2004-06-14 07:27:15 51°11.19 2°41.977 5.5 277 16 103060 72
2004-06-14 07:27:22 51°11.191 2°41.976 5.8 277 16 103050 72
2004-06-14 07:27:27 51°11.192 2°41.975 5.1 284 16 103050 72
2004-06-14 07:27:32 51°11.193 2°41.975 4.4 283 16 103060 72
2004-06-14 07:27:36 51°11.194 2°41.974 6.1 281 16 103060 72
2004-06-14 07:27:42 51°11.195 2°41.973 5.8 282 16 103060 72
2004-06-14 07:27:47 51°11.196 2°41.973 5.1 283 16 103060 72
2004-06-14 07:27:51 51°11.197 2°41.972 5.1 283 16 103050 72
2004-06-14 07:27:57 51°11.199 2°41.971 5.4 283 16 103050 72
2004-06-14 07:28:02 51°11.199 2°41.971 4.9 283 16 103060 72
2004-06-14 07:28:07 51°11.201 2°41.97 4.8 285 16 103060 72
2004-06-14 07:28:12 51°11.202 2°41.969 4.4 282 16 103060 72
2004-06-14 07:28:16 51°11.202 2°41.969 4.8 286 16 103060 72
2004-06-14 07:28:22 51°11.204 2°41.968 4.6 285 15.9 103050 72
2004-06-14 07:28:25 51°11.204 2°41.967 5.2 288 15.9 103050 72
2004-06-14 07:28:32 51°11.206 2°41.967 4.7 287 16 103060 72
2004-06-14 07:28:36 51°11.206 2°41.966 5.5 289 16 103060 72
2004-06-14 07:28:42 51°11.208 2°41.965 5.4 287 16 103060 72
2004-06-14 07:28:47 51°11.209 2°41.964 4.9 289 16 103060 72
2004-06-14 07:28:51 51°11.21 2°41.964 4.9 288 16 103060 72
2004-06-14 07:28:56 51°11.211 2°41.963 4.9 290 16 103060 72
2004-06-14 07:29:02 51°11.212 2°41.963 4.6 291 16 103060 73
2004-06-14 07:29:06 51°11.213 2°41.962 4.2 284 16 103060 73
2004-06-14 07:29:12 51°11.214 2°41.961 4.5 288 16 103060 73
2004-06-14 07:29:16 51°11.214 2°41.961 4.6 286 16 103060 73
2004-06-14 07:29:22 51°11.216 2°41.96 4.6 286 16 103060 73
2004-06-14 07:29:27 51°11.217 2°41.959 5.1 284 16 103060 73
2004-06-14 07:29:32 51°11.218 2°41.959 5.1 289 16 103060 73
2004-06-14 07:29:37 51°11.219 2°41.958 4.9 288 16 103060 73
2004-06-14 07:29:42 51°11.22 2°41.957 4.9 286 16 103060 73
2004-06-14 07:29:47 51°11.221 2°41.957 4.5 291 16 103060 73
2004-06-14 07:29:52 51°11.222 2°41.956 4.7 292 16 103060 73
2004-06-14 07:29:57 51°11.223 2°41.955 4.2 296 16 103060 73
2004-06-14 07:30:02 51°11.224 2°41.955 3.9 293 16 103060 73
2004-06-14 07:30:07 51°11.225 2°41.955 4 293 16 103060 73
2004-06-14 07:30:12 51°11.226 2°41.954 4.9 293 16 103060 73
2004-06-14 07:30:16 51°11.226 2°41.954 5.1 290 16 103060 73
2004-06-14 07:30:21 51°11.227 2°41.953 5.1 289 16 103060 73
2004-06-14 07:30:26 51°11.228 2°41.952 4.6 295 16 103060 73
2004-06-14 07:30:30 51°11.229 2°41.952 5.3 291 16 103060 74
2004-06-14 07:30:36 51°11.23 2°41.951 5.1 293 16 103060 74
2004-06-14 07:30:42 51°11.232 2°41.951 5.6 294 16.1 103060 74
2004-06-14 07:30:47 51°11.232 2°41.95 5.9 291 16.1 103060 74
2004-06-14 07:30:52 51°11.234 2°41.95 5.9 294 16.1 103060 75
2004-06-14 07:30:57 51°11.235 2°41.949 5.1 294 16.1 103060 75
2004-06-14 07:31:02 51°11.236 2°41.949 5.4 291 16.1 103060 75
2004-06-14 07:31:07 51°11.237 2°41.949 5.6 286 16.1 103060 75
2004-06-14 07:31:12 51°11.238 2°41.948 5.3 286 16.1 103060 75
2004-06-14 07:31:17 51°11.239 2°41.948 5.2 284 16.1 103060 75
2004-06-14 07:31:22 51°11.24 2°41.948 4.8 292 16.1 103060 75
2004-06-14 07:31:25 51°11.24 2°41.947 4.9 290 16.1 103060 75
2004-06-14 07:31:32 51°11.242 2°41.947 5.3 296 16.1 103060 75
2004-06-14 07:31:36 51°11.243 2°41.946 5.5 293 16.1 103060 75
2004-06-14 07:31:42 51°11.244 2°41.946 5.3 295 16.1 103060 75
2004-06-14 07:31:47 51°11.245 2°41.946 5.4 290 16.1 103060 75
2004-06-14 07:31:52 51°11.246 2°41.945 5.2 297 16.1 103060 75
2004-06-14 07:31:57 51°11.247 2°41.945 5.9 295 16.1 103060 75
2004-06-14 07:32:02 51°11.248 2°41.945 6.3 291 16.2 103060 75
2004-06-14 07:32:07 51°11.249 2°41.945 5.2 296 16.2 103060 75
2004-06-14 07:32:12 51°11.25 2°41.944 6.1 295 16.2 103060 75
2004-06-14 07:32:16 51°11.251 2°41.944 5.8 286 16.2 103060 75
2004-06-14 07:32:22 51°11.252 2°41.944 5.8 286 16.2 103060 75
2004-06-14 07:32:27 51°11.253 2°41.944 5.7 291 16.2 103060 75
2004-06-14 07:32:31 51°11.254 2°41.943 5 290 16.2 103060 75
2004-06-14 07:32:37 51°11.256 2°41.943 5.5 289 16.2 103060 75
2004-06-14 07:32:42 51°11.256 2°41.943 5.4 288 16.1 103060 75
2004-06-14 07:32:47 51°11.258 2°41.943 4.9 286 16.1 103060 75
2004-06-14 07:32:52 51°11.259 2°41.943 5.3 290 16.1 103060 74
2004-06-14 07:32:56 51°11.26 2°41.943 6 291 16.1 103060 74
2004-06-14 07:33:02 51°11.261 2°41.943 6.3 288 16.1 103060 75
2004-06-14 07:33:07 51°11.262 2°41.943 6 289 16.1 103060 75
2004-06-14 07:33:12 51°11.263 2°41.943 6 289 16.2 103060 75
2004-06-14 07:33:17 51°11.264 2°41.943 6.1 284 16.2 103060 75
2004-06-14 07:33:22 51°11.265 2°41.942 5.8 286 16.2 103060 75
2004-06-14 07:33:27 51°11.267 2°41.943 5.9 286 16.2 103060 75
2004-06-14 07:33:32 51°11.268 2°41.943 6.4 280 16.1 103060 75
2004-06-14 07:33:36 51°11.268 2°41.943 6.6 282 16.1 103060 75
2004-06-14 07:33:42 51°11.27 2°41.943 6.3 282 16.1 103060 75
2004-06-14 07:33:47 51°11.273 2°41.942 5.9 291 16.1 103060 75
2004-06-14 07:33:52 51°11.276 2°41.939 6.2 297 16.1 103060 75
2004-06-14 07:33:56 51°11.28 2°41.937 7 309 16.1 103060 75
2004-06-14 07:34:02 51°11.285 2°41.93 6.8 42 16.1 103070 75
2004-06-14 07:34:07 51°11.291 2°41.922 8.2 330 16.1 103070 75
2004-06-14 07:34:12 51°11.296 2°41.913 8.1 332 16.1 103060 75
2004-06-14 07:34:16 51°11.3 2°41.903 8.5 341 16.1 103060 75
2004-06-14 07:34:22 51°11.304 2°41.887 8.4 349 16.1 103060 75
2004-06-14 07:34:26 51°11.306 2°41.875 9.4 357 16.1 103060 75
2004-06-14 07:34:32 51°11.308 2°41.855 9.8 1 16.1 103060 75
2004-06-14 07:34:35 51°11.307 2°41.845 9.7 6 16.1 103060 75
2004-06-14 07:34:42 51°11.305 2°41.821 9.8 12 16.1 103060 75
2004-06-14 07:34:46 51°11.302 2°41.807 9.8 17 16.1 103060 75
2004-06-14 07:34:51 51°11.296 2°41.79 10.2 17 16.1 103050 75
2004-06-14 07:34:57 51°11.288 2°41.769 10.5 18 16.1 103050 75
2004-06-14 07:35:02 51°11.28 2°41.751 10.4 15 16.1 103050 75
2004-06-14 07:35:07 51°11.272 2°41.731 11 15 16.1 103050 75
2004-06-14 07:35:10 51°11.267 2°41.719 11.4 16 16.1 103050 75
2004-06-14 07:35:16 51°11.257 2°41.693 11.5 13 16.1 103050 75
2004-06-14 07:35:22 51°11.246 2°41.666 12 15 16.1 103050 75
2004-06-14 07:35:26 51°11.239 2°41.647 11.8 12 16.1 103050 75
2004-06-14 07:35:31 51°11.229 2°41.623 12.3 17 16.1 103050 75
2004-06-14 07:35:36 51°11.22 2°41.599 11.4 13 16.1 103050 75
2004-06-14 07:35:42 51°11.21 2°41.569 12.2 11 16.1 103050 75
2004-06-14 07:35:47 51°11.2 2°41.545 12.6 10 16.1 103050 75
2004-06-14 07:35:52 51°11.191 2°41.519 11.5 13 16.1 103050 75
2004-06-14 07:35:56 51°11.183 2°41.5 12.2 13 16.1 103050 75
2004-06-14 07:36:02 51°11.172 2°41.469 12.4 15 16.1 103050 75
2004-06-14 07:36:07 51°11.163 2°41.444 11.9 13 16.1 103050 75
2004-06-14 07:36:12 51°11.154 2°41.419 12.3 13 16.1 103050 75
2004-06-14 07:36:16 51°11.146 2°41.399 11.9 14 16.1 103050 75
2004-06-14 07:36:22 51°11.135 2°41.368 11.6 15 16.1 103050 76
2004-06-14 07:36:27 51°11.125 2°41.343 12.4 16 16.1 103050 76
2004-06-14 07:36:32 51°11.116 2°41.318 12 17 16.1 103040 76
2004-06-14 07:36:36 51°11.108 2°41.298 12.5 15 16.1 103040 76
2004-06-14 07:36:42 51°11.097 2°41.267 12.6 15 16.1 103050 76
2004-06-14 07:36:47 51°11.087 2°41.242 12.3 14 16.1 103050 76
2004-06-14 07:36:52 51°11.078 2°41.216 12.4 11 16.1 103050 76
2004-06-14 07:36:56 51°11.07 2°41.196 12.7 14 16.1 103050 76
2004-06-14 07:37:02 51°11.059 2°41.165 12.2 17 16.1 103050 76
2004-06-14 07:37:05 51°11.054 2°41.15 13.1 16 16.1 103050 76
2004-06-14 07:37:11 51°11.043 2°41.119 12.9 12 16.1 103050 76
2004-06-14 07:37:16 51°11.033 2°41.093 12.8 15 16.1 103050 76
2004-06-14 07:37:22 51°11.022 2°41.062 12.4 16 16.1 103050 76
2004-06-14 07:37:27 51°11.013 2°41.036 12.5 12 16.1 103050 76
2004-06-14 07:37:32 51°11.004 2°41.011 12.3 13 16.1 103050 76
2004-06-14 07:37:37 51°10.995 2°40.985 12.1 14 16.1 103050 76
2004-06-14 07:37:42 51°10.986 2°40.959 12.5 13 16.1 103050 76
2004-06-14 07:37:45 51°10.98 2°40.944 12.4 15 16.1 103050 76
2004-06-14 07:37:52 51°10.967 2°40.908 12.8 11 16.1 103050 76
2004-06-14 07:37:57 51°10.959 2°40.882 12.9 11 16.1 103050 76
2004-06-14 07:38:02 51°10.949 2°40.857 12.2 13 16.1 103050 77
2004-06-14 07:38:07 51°10.939 2°40.831 12.5 13 16.1 103050 77
2004-06-14 07:38:12 51°10.93 2°40.805 11.9 16 16.1 103050 77
2004-06-14 07:38:17 51°10.921 2°40.78 12.5 15 16.1 103050 77
2004-06-14 07:38:22 51°10.912 2°40.754 12.5 15 16.1 103050 77
2004-06-14 07:38:25 51°10.907 2°40.738 12.9 13 16.1 103050 77
2004-06-14 07:38:32 51°10.893 2°40.702 13.4 14 16.1 103050 77
2004-06-14 07:38:36 51°10.887 2°40.681 13.1 15 16.1 103050 77
2004-06-14 07:38:42 51°10.877 2°40.649 12.9 16 16.1 103060 77
2004-06-14 07:38:47 51°10.87 2°40.622 12.7 16 16.1 103060 77
2004-06-14 07:38:52 51°10.862 2°40.594 13.3 13 16.1 103050 77
2004-06-14 07:38:57 51°10.856 2°40.567 12.7 14 16.1 103050 77
2004-06-14 07:39:02 51°10.849 2°40.539 11.9 16 16.1 103050 77
2004-06-14 07:39:05 51°10.845 2°40.523 12.5 13 16.1 103050 77
2004-06-14 07:39:12 51°10.836 2°40.484 12.9 14 16.1 103050 77
2004-06-14 07:39:16 51°10.83 2°40.462 13 13 16.1 103050 77
2004-06-14 07:39:22 51°10.822 2°40.428 13.1 14 16.1 103050 77
2004-06-14 07:39:27 51°10.815 2°40.401 12.8 11 16.1 103050 77
2004-06-14 07:39:32 51°10.808 2°40.374 12.6 9 16.1 103050 78
2004-06-14 07:39:37 51°10.801 2°40.346 12.5 11 16.1 103050 78
2004-06-14 07:39:42 51°10.794 2°40.319 12.7 10 16.1 103050 78
2004-06-14 07:39:45 51°10.79 2°40.302 11.9 12 16.1 103050 78
2004-06-14 07:39:51 51°10.782 2°40.269 12 7 16.1 103050 77
2004-06-14 07:39:56 51°10.775 2°40.241 12.3 11 16.1 103050 77
2004-06-14 07:40:02 51°10.766 2°40.208 12.6 11 16.1 103050 78
2004-06-14 07:40:07 51°10.759 2°40.181 12.6 10 16.1 103050 78
2004-06-14 07:40:12 51°10.752 2°40.153 13 12 16.1 103050 78
2004-06-14 07:40:17 51°10.745 2°40.126 12.6 14 16.1 103050 78
2004-06-14 07:40:22 51°10.737 2°40.099 12.6 13 16.1 103050 78
2004-06-14 07:40:25 51°10.733 2°40.082 12.2 10 16.1 103050 78
2004-06-14 07:40:32 51°10.723 2°40.044 11.8 10 16.1 103050 78
2004-06-14 07:40:36 51°10.718 2°40.022 12.1 14 16.1 103050 78
2004-06-14 07:40:42 51°10.71 2°39.988 14 6 16.1 103050 78
2004-06-14 07:40:47 51°10.703 2°39.961 13.1 9 16.1 103050 78
2004-06-14 07:40:52 51°10.697 2°39.933 13 7 16.1 103060 79
2004-06-14 07:40:56 51°10.691 2°39.911 13.6 7 16.1 103060 79
2004-06-14 07:41:02 51°10.683 2°39.878 13.3 8 16.1 103050 79
2004-06-14 07:41:07 51°10.676 2°39.85 13.4 8 16.1 103050 79
2004-06-14 07:41:12 51°10.669 2°39.823 13.3 8 16.1 103050 79
2004-06-14 07:41:16 51°10.664 2°39.801 13 9 16.1 103050 79
2004-06-14 07:41:22 51°10.656 2°39.768 12.5 6 16.1 103050 79
2004-06-14 07:41:27 51°10.649 2°39.74 12.3 10 16.1 103050 79
2004-06-14 07:41:32 51°10.642 2°39.713 13.4 9 16.1 103050 79
2004-06-14 07:41:36 51°10.636 2°39.69 13.1 9 16.1 103050 79
2004-06-14 07:41:42 51°10.628 2°39.657 13.1 10 16.1 103060 79
2004-06-14 07:41:47 51°10.621 2°39.63 13.2 7 16.1 103060 79
2004-06-14 07:41:52 51°10.615 2°39.602 13.4 9 16.1 103060 79
2004-06-14 07:41:57 51°10.608 2°39.574 13.4 8 16.1 103060 79
2004-06-14 07:42:02 51°10.603 2°39.546 13 7 16 103040 79
2004-06-14 07:42:07 51°10.596 2°39.518 13 11 16 103040 79
2004-06-14 07:42:12 51°10.591 2°39.49 13.1 9 16.1 103050 79
2004-06-14 07:42:16 51°10.586 2°39.468 12.8 9 16.1 103050 79
2004-06-14 07:42:22 51°10.579 2°39.434 13.3 7 16 103050 79
2004-06-14 07:42:27 51°10.573 2°39.405 13.2 6 16 103050 79
2004-06-14 07:42:32 51°10.567 2°39.378 12.9 6 16 103050 79
2004-06-14 07:42:37 51°10.561 2°39.35 13.2 8 16 103050 79
2004-06-14 07:42:42 51°10.556 2°39.321 13 9 16 103050 79
2004-06-14 07:42:47 51°10.549 2°39.293 13.2 12 16 103050 79
2004-06-14 07:42:52 51°10.544 2°39.265 12.7 6 16 103060 79
2004-06-14 07:42:56 51°10.539 2°39.243 13 11 16 103060 79
2004-06-14 07:43:02 51°10.532 2°39.209 12.4 6 16 103060 79
2004-06-14 07:43:07 51°10.526 2°39.181 12.9 8 16 103060 79
2004-06-14 07:43:12 51°10.52 2°39.153 12.9 5 16 103050 79
2004-06-14 07:43:16 51°10.515 2°39.131 13.5 6 16 103050 79
2004-06-14 07:43:22 51°10.509 2°39.097 13.2 5 16 103050 79
2004-06-14 07:43:27 51°10.502 2°39.069 13 6 16 103050 79
2004-06-14 07:43:32 51°10.497 2°39.041 12.8 7 16 103050 79
2004-06-14 07:43:37 51°10.491 2°39.013 12.9 11 16 103050 79
2004-06-14 07:43:39 51°10.488 2°39.002 12.5 9 16 103050 80
2004-06-14 07:43:46 51°10.48 2°38.963 13.3 10 16 103050 80
2004-06-14 07:43:52 51°10.473 2°38.929 12.8 8 16 103050 79
2004-06-14 07:43:57 51°10.467 2°38.901 13.5 10 16 103050 79
2004-06-14 07:44:02 51°10.461 2°38.873 13.3 8 16 103050 80
2004-06-14 07:44:07 51°10.455 2°38.845 13.2 9 16 103050 80
2004-06-14 07:44:12 51°10.449 2°38.817 13.2 10 16 103050 80
2004-06-14 07:44:16 51°10.444 2°38.795 13.3 6 16 103050 80
2004-06-14 07:44:22 51°10.437 2°38.76 13.5 8 16 103050 80
2004-06-14 07:44:27 51°10.431 2°38.732 13.1 9 16 103050 80
2004-06-14 07:44:32 51°10.425 2°38.704 13.2 4 15.9 103050 79
2004-06-14 07:44:37 51°10.419 2°38.676 13.1 10 15.9 103050 79
2004-06-14 07:44:42 51°10.413 2°38.647 12.8 8 15.9 103050 79
2004-06-14 07:44:45 51°10.409 2°38.63 12.8 7 15.9 103050 79
2004-06-14 07:44:52 51°10.401 2°38.591 13 8 15.9 103050 80
2004-06-14 07:44:56 51°10.395 2°38.568 13.3 7 15.9 103050 80
2004-06-14 07:45:02 51°10.389 2°38.534 12.7 7 15.9 103040 79
2004-06-14 07:45:07 51°10.382 2°38.507 13.1 5 15.9 103040 79
2004-06-14 07:45:12 51°10.377 2°38.478 12.6 7 15.9 103050 80
2004-06-14 07:45:17 51°10.37 2°38.45 12.6 11 15.9 103050 80
2004-06-14 07:45:22 51°10.364 2°38.422 12.5 5 15.9 103050 80
2004-06-14 07:45:25 51°10.361 2°38.405 13.3 3 15.9 103050 80
2004-06-14 07:45:32 51°10.352 2°38.365 13.5 6 15.9 103050 80
2004-06-14 07:45:36 51°10.348 2°38.342 12.8 4 15.9 103050 80
2004-06-14 07:45:42 51°10.34 2°38.309 13.1 8 15.9 103050 80
2004-06-14 07:45:47 51°10.335 2°38.28 12.9 6 15.9 103050 80
2004-06-14 07:45:52 51°10.328 2°38.252 12.4 8 15.9 103050 80
2004-06-14 07:45:56 51°10.324 2°38.229 12.2 5 15.9 103050 80
2004-06-14 07:46:02 51°10.317 2°38.195 12 6 15.9 103060 80
2004-06-14 07:46:07 51°10.311 2°38.167 12.4 3 15.9 103060 80
2004-06-14 07:46:12 51°10.305 2°38.139 12.8 7 15.9 103050 80
2004-06-14 07:46:16 51°10.3 2°38.117 12.8 4 15.9 103050 80
2004-06-14 07:46:22 51°10.293 2°38.082 12.7 5 15.9 103060 80
2004-06-14 07:46:27 51°10.287 2°38.054 12.2 5 15.9 103060 80
2004-06-14 07:46:32 51°10.281 2°38.027 12.5 7 15.9 103050 80
2004-06-14 07:46:37 51°10.275 2°37.998 13.1 4 15.9 103050 80
2004-06-14 07:46:42 51°10.269 2°37.97 13.6 7 15.9 103050 80
2004-06-14 07:46:45 51°10.266 2°37.953 13.4 7 15.9 103050 80
2004-06-14 07:46:52 51°10.257 2°37.914 13.2 8 15.9 103050 80
2004-06-14 07:46:56 51°10.253 2°37.891 13.4 8 15.9 103050 80
2004-06-14 07:47:02 51°10.245 2°37.857 13.5 8 15.9 103050 81
2004-06-14 07:47:07 51°10.239 2°37.83 12.3 6 15.9 103050 81
2004-06-14 07:47:12 51°10.233 2°37.801 13.2 5 15.9 103050 81
2004-06-14 07:47:16 51°10.229 2°37.779 13.3 7 15.9 103050 81
2004-06-14 07:47:22 51°10.222 2°37.745 13 6 15.9 103050 81
2004-06-14 07:47:27 51°10.216 2°37.717 13.3 10 15.9 103050 81
2004-06-14 07:47:32 51°10.21 2°37.689 13.5 8 15.9 103050 81
2004-06-14 07:47:36 51°10.205 2°37.666 12.9 10 15.9 103050 81
2004-06-14 07:47:42 51°10.199 2°37.632 12.6 11 15.9 103050 81
2004-06-14 07:47:47 51°10.192 2°37.605 12.9 9 15.9 103050 81
2004-06-14 07:47:52 51°10.187 2°37.576 13.4 6 15.9 103050 81
2004-06-14 07:47:57 51°10.181 2°37.548 13.3 10 15.9 103050 81
2004-06-14 07:48:02 51°10.174 2°37.521 12.9 4 15.8 103050 81
2004-06-14 07:48:05 51°10.17 2°37.504 12.9 6 15.8 103050 81
2004-06-14 07:48:11 51°10.164 2°37.47 12.5 5 15.8 103050 81
2004-06-14 07:48:16 51°10.157 2°37.442 13.1 9 15.8 103050 81
2004-06-14 07:48:22 51°10.15 2°37.408 12.8 6 15.8 103050 81
2004-06-14 07:48:27 51°10.145 2°37.381 13.4 6 15.8 103050 81
2004-06-14 07:48:32 51°10.138 2°37.353 13.3 6 15.8 103050 81
2004-06-14 07:48:37 51°10.133 2°37.324 13.3 4 15.8 103050 81
2004-06-14 07:48:42 51°10.127 2°37.296 12.9 7 15.8 103050 81
2004-06-14 07:48:45 51°10.123 2°37.28 13.5 8 15.8 103050 81
2004-06-14 07:48:52 51°10.115 2°37.241 12.9 5 15.8 103060 81
2004-06-14 07:48:57 51°10.109 2°37.212 12.9 6 15.8 103060 81
2004-06-14 07:49:02 51°10.103 2°37.185 13.3 7 15.8 103050 81
2004-06-14 07:49:07 51°10.098 2°37.156 13.1 6 15.8 103050 81
2004-06-14 07:49:12 51°10.091 2°37.129 13.2 8 15.8 103040 81
2004-06-14 07:49:16 51°10.087 2°37.106 12.4 8 15.8 103040 81
2004-06-14 07:49:22 51°10.079 2°37.073 12.8 8 15.8 103060 81
2004-06-14 07:49:27 51°10.074 2°37.045 12.9 8 15.8 103060 81
2004-06-14 07:49:32 51°10.067 2°37.017 12.8 7 15.8 103060 82
2004-06-14 07:49:37 51°10.062 2°36.989 12.4 7 15.8 103060 82
2004-06-14 07:49:42 51°10.055 2°36.961 12.2 7 15.8 103050 82
2004-06-14 07:49:47 51°10.05 2°36.933 13 6 15.8 103050 82
2004-06-14 07:49:52 51°10.043 2°36.905 13 4 15.8 103050 82
2004-06-14 07:49:56 51°10.039 2°36.883 12 6 15.8 103050 82
2004-06-14 07:50:02 51°10.032 2°36.85 12.6 4 15.8 103050 82
2004-06-14 07:50:07 51°10.026 2°36.822 12.9 5 15.8 103050 82
2004-06-14 07:50:12 51°10.02 2°36.794 12.5 3 15.8 103050 82
2004-06-14 07:50:16 51°10.015 2°36.771 12.1 9 15.8 103050 82
2004-06-14 07:50:22 51°10.008 2°36.738 11.8 7 15.8 103050 82
2004-06-14 07:50:27 51°10.002 2°36.71 12 9 15.8 103050 82
2004-06-14 07:50:32 51°9.996 2°36.682 12.2 8 15.9 103050 82
2004-06-14 07:50:37 51°9.99 2°36.654 12.8 8 15.9 103050 82
2004-06-14 07:50:42 51°9.984 2°36.626 13.1 5 15.9 103050 83
2004-06-14 07:50:46 51°9.979 2°36.604 13.1 9 15.9 103050 83
2004-06-14 07:50:51 51°9.973 2°36.576 12.8 5 15.9 103060 83
2004-06-14 07:50:56 51°9.967 2°36.548 12.9 6 15.9 103060 83
2004-06-14 07:51:02 51°9.96 2°36.515 12.5 9 15.9 103050 83
2004-06-14 07:51:07 51°9.954 2°36.487 12.6 7 15.9 103050 83
2004-06-14 07:51:12 51°9.948 2°36.459 12.9 8 15.9 103050 83
2004-06-14 07:51:16 51°9.943 2°36.437 12.9 8 15.9 103050 83
2004-06-14 07:51:22 51°9.936 2°36.403 12.5 8 15.9 103060 83
2004-06-14 07:51:27 51°9.931 2°36.375 12.9 10 15.9 103060 83
2004-06-14 07:51:32 51°9.925 2°36.347 12.6 6 15.9 103060 83
2004-06-14 07:51:36 51°9.922 2°36.324 12.1 3 15.9 103060 83
2004-06-14 07:51:42 51°9.918 2°36.29 13 358 15.9 103050 83
2004-06-14 07:51:47 51°9.917 2°36.26 12.1 355 15.9 103050 83
2004-06-14 07:51:52 51°9.917 2°36.231 12.5 355 15.9 103050 83
2004-06-14 07:51:57 51°9.919 2°36.202 12.8 355 15.9 103050 83
2004-06-14 07:52:02 51°9.922 2°36.173 12.9 355 15.9 103050 83